This is the latest recevied weather packets stored in our database for station/object DB0SVX. If no packets are shown the sender has not sent any weather packets the latest 10 day(s).
| Time | Temp. | Humidity | Pressure | Rain* | Wind** | Luminosity | Snow |
|---|---|---|---|---|---|---|---|
| 1777696820 | 3.33° C | 49% | 1020.9 hPa | 0 mm | - | - | - |
| 1777695920 | 3.33° C | 50% | 1020.7 hPa | 0 mm | - | - | - |
| 1777695020 | 2.78° C | 50% | 1020.7 hPa | 0 mm | - | - | - |
| 1777694120 | 2.78° C | 51% | 1020.7 hPa | 0 mm | - | - | - |
| 1777693220 | 2.78° C | 52% | 1020.7 hPa | 0 mm | - | - | - |
| 1777692320 | 2.78° C | 52% | 1020.5 hPa | 0 mm | - | - | - |
| 1777691420 | 3.33° C | 52% | 1020.7 hPa | 0 mm | - | - | - |
| 1777690520 | 3.33° C | 53% | 1020.7 hPa | 0 mm | - | - | - |
| 1777689620 | 3.33° C | 53% | 1021 hPa | 0 mm | - | - | - |
| 1777688720 | 3.33° C | 54% | 1020.9 hPa | 0 mm | - | - | - |
| 1777687820 | 3.33° C | 54% | 1021 hPa | 0 mm | - | - | - |
| 1777686920 | 3.33° C | 54% | 1020.9 hPa | 0 mm | - | - | - |
| 1777686020 | 3.89° C | 55% | 1020.9 hPa | 0 mm | - | - | - |
| 1777685120 | 3.89° C | 55% | 1021 hPa | 0 mm | - | - | - |
| 1777684220 | 4.44° C | 55% | 1021 hPa | 0 mm | - | - | - |
| 1777683320 | 4.44° C | 55% | 1021 hPa | 0 mm | - | - | - |
| 1777682420 | 4.44° C | 56% | 1021.2 hPa | 0 mm | - | - | - |
| 1777681520 | 4.44° C | 56% | 1021.4 hPa | 0 mm | - | - | - |
| 1777680620 | 5° C | 55% | 1021.5 hPa | 0 mm | - | - | - |
| 1777679720 | 5.56° C | 55% | 1021.5 hPa | 0 mm | - | - | - |
| 1777678820 | 5.56° C | 55% | 1021.5 hPa | 0 mm | - | - | - |
| 1777677920 | 6.11° C | 54% | 1021.5 hPa | 0 mm | - | - | - |
| 1777677020 | 6.11° C | 53% | 1021.7 hPa | 0 mm | - | - | - |
| 1777676120 | 6.67° C | 53% | 1021.7 hPa | 0 mm | - | - | - |
| 1777675220 | 6.67° C | 52% | 1021.7 hPa | 0 mm | - | - | - |
* Rain latest hour (hover to see other rain measurements)
** Current wind speed in m/s (hover to see current wind gust speed)